(31630) Jennywang = 1999 GN23

Discovered at Socorro on 1999-04-06 by LINEAR.
(31630) Jennywang = 1999 GN23

Jenny Lynn Wang (b. 1997) was awarded second place in the 2014 Intel International Science and Engineering Fair for her computer science project. She attends the North Carolina School of Science and Mathematics, Durham, North Carolina, U.S.A. [Ref: Minor Planet Circ. 94740]

Orbit

Orbit type: Main Belt

Note: WebGL enabled browser required.

epoch2023-09-13.0
epoch JD2460200.5
perihelion date2021-02-02.97415
perihelion JD2459248.47415
argument of perihelion (°)271.28767
ascending node (°)257.56368
inclination (°)3.69481
eccentricity0.1755051
perihelion distance (AU)2.2142012
Tisserand w.r.t. Jupiter3.3
ΔV w.r.t. Earth (km/sec)9.4
semimajor axis (AU)2.6855244
mean anomaly (°)213.21067
mean daily motion (°/day)0.22395470
aphelion distance (AU)3.157
period (years)4.4
P-vector [x]-0.97909959
P-vector [y]0.20261628
P-vector [z]0.01762493
Q-vector [x]-0.19340072
Q-vector [y]-0.90073492
Q-vector [z]-0.38893799
absolute magnitude15.05
phase slope0.15
uncertainty0
referenceMPEC 2024-B20
observations used1393
oppositions20
arc length (days)9567
first opposition used1997
last opposition used2024
residual rms (arc-secs)0.74
perturbers coarse indicatorM-v
perturbers precise indicator003Ek
first observation date used1997-11-06.0
last observation date used2024-01-16.0
computer nameMPCLINUX
JD of orbit computation2456966.757283
perihelion JD uncertainty (days)4.9264E-05
argument of perihelion uncertainty (°)7.6919E-05
ascending node uncertainty (°)7.6366E-05
inclination uncertainty (°)3.5243E-06
eccentricity uncertainty 4.8200E-08
perihelion distance uncertainty (AU)1.2961E-07
Minimum Orbit Intersection Distances (in AU)
for orbit epoch: 2460200.5, reference: E2024-B20
Mercury1.82959
Venus1.50286
Earth1.22306
Mars0.57953
Jupiter1.84173
Saturn6.28405
Uranus16.2382
Neptune26.7527

Observations

1430 total observations over interval: 1997 11 06.14538 – 2024 01 16.171371
These data are available for download (format description).

Date (UT) J2000 RA J2000 Dec Magn Location Ref
1997 11 06.14538 03 01 20.31 +20 12 57.6 19.4   704 – Lincoln Laboratory ETS, New Mexico MPS 20773
1997 11 06.16548 03 01 19.09 +20 12 53.4   704 – Lincoln Laboratory ETS, New Mexico MPS 20773
1997 11 06.16638 03 01 19.44 +20 12 49.3   704 – Lincoln Laboratory ETS, New Mexico MPS 20773
1997 11 06.18554 03 01 18.08 +20 12 44.7   704 – Lincoln Laboratory ETS, New Mexico MPS 20773
1997 11 06.18619 03 01 18.22 +20 12 44.8   704 – Lincoln Laboratory ETS, New Mexico MPS 20773
1997 11 06.20540 03 01 16.86 +20 12 42.7   704 – Lincoln Laboratory ETS, New Mexico MPS 20773
1997 11 06.20606 03 01 17.16 +20 12 40.6   704 – Lincoln Laboratory ETS, New Mexico MPS 20773
1997 11 06.22536 03 01 15.58 +20 12 36.1   704 – Lincoln Laboratory ETS, New Mexico MPS 20773
1997 11 06.22602 03 01 16.09 +20 12 34.1   704 – Lincoln Laboratory ETS, New Mexico MPS 20773
1999 03 24.29064 11 56 27.27 -06 41 51.1 17.6 R 699 – Lowell Observatory-LONEOS MPS 4894
1999 03 24.31612 11 56 26.03 -06 41 42.5   699 – Lowell Observatory-LONEOS MPS 4894
1999 03 24.34164 11 56 24.77 -06 41 33.7   699 – Lowell Observatory-LONEOS MPS 4894
1999 04 06.24257 11 46 51.30 -05 22 55.6 18.4   704 – Lincoln Laboratory ETS, New Mexico MPS 4894
1999 04 06.25690 11 46 50.79 -05 22 49.8 18.9   704 – Lincoln Laboratory ETS, New Mexico MPS 4894
1999 04 06.27046 11 46 50.26 -05 22 43.7 19.0   704 – Lincoln Laboratory ETS, New Mexico MPS 4894
1999 04 06.28440 11 46 49.68 -05 22 38.6 19.4   704 – Lincoln Laboratory ETS, New Mexico MPS 4894
1999 04 06.29986 11 46 48.98 -05 22 34.7 19.2   704 – Lincoln Laboratory ETS, New Mexico MPS 4894
1999 04 11.13689 11 43 56.21 -04 54 03.8 17.8 R 699 – Lowell Observatory-LONEOS MPS 4894
1999 04 11.16744 11 43 55.11 -04 53 53.6   699 – Lowell Observatory-LONEOS MPS 4894
1999 04 11.19800 11 43 54.05 -04 53 42.0   699 – Lowell Observatory-LONEOS MPS 4894
1999 04 12.20108 11 43 21.97 -04 48 02.4 18.0   704 – Lincoln Laboratory ETS, New Mexico MPS 4894
1999 04 12.21881 11 43 21.37 -04 47 57.5 18.1   704 – Lincoln Laboratory ETS, New Mexico MPS 4894
1999 04 12.23622 11 43 20.69 -04 47 49.7 18.5   704 – Lincoln Laboratory ETS, New Mexico MPS 4894
1999 04 14.32305 11 42 18.88 -04 36 21.0 18.6   704 – Lincoln Laboratory ETS, New Mexico MPS 4894
1999 04 14.33248 11 42 18.36 -04 36 18.7 18.9   704 – Lincoln Laboratory ETS, New Mexico MPS 4894
1999 04 14.34218 11 42 18.16 -04 36 13.4 18.9   704 – Lincoln Laboratory ETS, New Mexico MPS 4894
1999 04 14.35226 11 42 17.76 -04 36 11.8 18.9   704 – Lincoln Laboratory ETS, New Mexico MPS 4894
1999 04 14.36194 11 42 17.42 -04 36 06.9 18.9   704 – Lincoln Laboratory ETS, New Mexico MPS 4894
1999 04 15.12898 11 41 57.11 -04 32 00.4 18.6   704 – Lincoln Laboratory ETS, New Mexico MPS 4894
1999 04 15.16363 11 41 56.14 -04 31 49.8 18.7   704 – Lincoln Laboratory ETS, New Mexico MPS 4894
1999 04 15.18091 11 41 55.63 -04 31 43.6 18.7   704 – Lincoln Laboratory ETS, New Mexico MPS 4894
1999 04 15.19824 11 41 55.02 -04 31 39.0 19.1   704 – Lincoln Laboratory ETS, New Mexico MPS 4894
2000 07 06.37052 20 35 01.67 -14 56 17.6 20.4 V 691 – Steward Observatory, Kitt Peak-Spacewatch MPS 20773
2000 07 06.39201 20 35 00.70 -14 56 19.3 21.4 V 691 – Steward Observatory, Kitt Peak-Spacewatch MPS 20773
2000 07 06.41348 20 34 59.61 -14 56 21.4 20.4 V 691 – Steward Observatory, Kitt Peak-Spacewatch MPS 20773
2000 08 01.26243 20 12 19.89 -15 50 57.9 19.2   704 – Lincoln Laboratory ETS, New Mexico MPS 20773
2000 08 01.27700 20 12 19.07 -15 51 01.5 19.3   704 – Lincoln Laboratory ETS, New Mexico MPS 20773
2000 08 01.29147 20 12 18.33 -15 51 03.4 19.6   704 – Lincoln Laboratory ETS, New Mexico MPS 20774
2001 09 23.33853 01 03 24.37 +12 02 47.3 19.5   704 – Lincoln Laboratory ETS, New Mexico MPS 35513
2001 09 23.35273 01 03 23.72 +12 02 44.0 19.8   704 – Lincoln Laboratory ETS, New Mexico MPS 35513
2001 09 23.36695 01 03 23.07 +12 02 39.7 20.0   704 – Lincoln Laboratory ETS, New Mexico MPS 35513
2001 09 23.38117 01 03 22.42 +12 02 35.3 19.6   704 – Lincoln Laboratory ETS, New Mexico MPS 35513
2001 09 23.39605 01 03 21.73 +12 02 31.0 19.7   704 – Lincoln Laboratory ETS, New Mexico MPS 35513
2001 09 24.33806 01 02 39.11 +11 58 22.8 19.4   704 – Lincoln Laboratory ETS, New Mexico MPS 35513
2001 09 24.35267 01 02 38.34 +11 58 19.6 19.9   704 – Lincoln Laboratory ETS, New Mexico MPS 35513
2001 09 24.36728 01 02 37.74 +11 58 15.1 19.4   704 – Lincoln Laboratory ETS, New Mexico MPS 35513
2001 09 24.38190 01 02 37.01 +11 58 10.3 19.6   704 – Lincoln Laboratory ETS, New Mexico MPS 35513
2001 09 24.39653 01 02 36.33 +11 58 07.0 19.7   704 – Lincoln Laboratory ETS, New Mexico MPS 35513
2001 09 27.32251 01 00 20.15 +11 44 38.5 19.1   704 – Lincoln Laboratory ETS, New Mexico MPS 35513
2001 09 27.33199 01 00 19.66 +11 44 35.5 18.8   704 – Lincoln Laboratory ETS, New Mexico MPS 35513
2001 09 27.33765 01 00 19.39 +11 44 34.0 19.3   704 – Lincoln Laboratory ETS, New Mexico MPS 35513
2001 09 27.34786 01 00 18.90 +11 44 30.7 19.5   704 – Lincoln Laboratory ETS, New Mexico MPS 35513
2001 09 27.35280 01 00 18.64 +11 44 29.8 19.6   704 – Lincoln Laboratory ETS, New Mexico MPS 35513
2001 09 27.36300 01 00 18.23 +11 44 24.9 19.6   704 – Lincoln Laboratory ETS, New Mexico MPS 35513
2001 09 27.36805 01 00 17.88 +11 44 26.0 19.8   704 – Lincoln Laboratory ETS, New Mexico MPS 35513
2001 09 27.37885 01 00 17.42 +11 44 21.0 19.6   704 – Lincoln Laboratory ETS, New Mexico MPS 35513
2001 09 27.38318 01 00 17.16 +11 44 21.4 19.7   704 – Lincoln Laboratory ETS, New Mexico MPS 35513
2001 10 13.20694 00 47 14.51 +10 18 44.9 19.2 R 699 – Lowell Observatory-LONEOS MPS 37473
2001 10 13.23042 00 47 13.31 +10 18 37.3   699 – Lowell Observatory-LONEOS MPS 37473
2001 10 13.25383 00 47 12.11 +10 18 28.7   699 – Lowell Observatory-LONEOS MPS 37473
2001 10 13.27724 00 47 10.95 +10 18 21.5   699 – Lowell Observatory-LONEOS MPS 37473
2001 10 14.24482 00 46 23.25 +10 12 40.8 19.4   704 – Lincoln Laboratory ETS, New Mexico MPS 37473
2001 10 14.26052 00 46 22.46 +10 12 34.7 19.4   704 – Lincoln Laboratory ETS, New Mexico MPS 37473
2001 10 14.27619 00 46 21.72 +10 12 30.0 19.7   704 – Lincoln Laboratory ETS, New Mexico MPS 37473
2001 10 14.29238 00 46 20.85 +10 12 24.0 19.7   704 – Lincoln Laboratory ETS, New Mexico MPS 37473
2001 10 14.30804 00 46 20.07 +10 12 18.3 20.0   704 – Lincoln Laboratory ETS, New Mexico MPS 37473
2001 10 17.24361 00 43 57.52 +09 54 59.3 19.3   704 – Lincoln Laboratory ETS, New Mexico MPS 38937
2001 10 17.25964 00 43 56.84 +09 54 55.1 19.7   704 – Lincoln Laboratory ETS, New Mexico MPS 38937
2001 10 17.27562 00 43 56.01 +09 54 49.0 19.6   704 – Lincoln Laboratory ETS, New Mexico MPS 38937
2001 10 17.29159 00 43 55.20 +09 54 43.4 19.6   704 – Lincoln Laboratory ETS, New Mexico MPS 38937
2001 10 17.30793 00 43 54.31 +09 54 37.5 19.1   704 – Lincoln Laboratory ETS, New Mexico MPS 38937
2001 10 18.23298 00 43 10.42 +09 49 12.5 19.4   644 – Palomar Mountain/NEAT MPS 38937
2001 10 18.25409 00 43 09.39 +09 49 04.8 19.4   644 – Palomar Mountain/NEAT MPS 38937
2001 10 18.27438 00 43 08.42 +09 48 57.8 19.4   644 – Palomar Mountain/NEAT MPS 38937
2001 10 21.17266 00 40 53.50 +09 31 54.6 19.7   704 – Lincoln Laboratory ETS, New Mexico MPS 38937
2001 10 21.18902 00 40 52.75 +09 31 49.1 19.6   704 – Lincoln Laboratory ETS, New Mexico MPS 38937
2001 10 21.20539 00 40 52.01 +09 31 43.3 19.2   704 – Lincoln Laboratory ETS, New Mexico MPS 38937
2001 10 21.22177 00 40 51.23 +09 31 38.0 19.1   704 – Lincoln Laboratory ETS, New Mexico MPS 38937
2001 10 21.23815 00 40 50.47 +09 31 32.3 19.1   704 – Lincoln Laboratory ETS, New Mexico MPS 38937
2001 11 10.23579 00 28 41.87 +07 46 26.3 19.7   704 – Lincoln Laboratory ETS, New Mexico MPS 40155
2001 11 10.25085 00 28 41.46 +07 46 22.0 20.0   704 – Lincoln Laboratory ETS, New Mexico MPS 40155
